| time (UTC) | temp F | wind direction | speed MPH | gust MPH | rain 1hr in | rain 24hr in | rain mn in | humidity % | barometer mb |
| 20260504224326 | 79 | 161 | 6.0 | 16.0 | 0.00 | 0.00 | 0.00 | 67 | 1009.2 |
| 20260504223832 | 80 | 144 | 6.0 | 13.0 | 0.00 | 0.00 | 0.00 | 67 | 1009.3 |
| 20260504223317 | 80 | 159 | 7.0 | 13.0 | 0.00 | 0.00 | 0.00 | 67 | 1009.5 |
| 20260504222825 | 79 | 146 | 6.0 | 15.0 | 0.00 | 0.00 | 0.00 | 67 | 1009.4 |
| 20260504222326 | 79 | 169 | 5.0 | 15.0 | 0.00 | 0.00 | 0.00 | 67 | 1009.5 |
| 20260504221833 | 79 | 181 | 5.0 | 15.0 | 0.00 | 0.00 | 0.00 | 67 | 1009.5 |
| 20260504221318 | 79 | 180 | 7.0 | 17.0 | 0.00 | 0.00 | 0.00 | 67 | 1009.5 |
| 20260504220850 | 79 | 120 | 7.0 | 17.0 | 0.00 | 0.00 | 0.00 | 67 | 1009.6 |
| 20260504220333 | 79 | 183 | 9.0 | 18.0 | 0.00 | 0.00 | 0.00 | 67 | 1009.7 |
| 20260504215839 | 79 | 146 | 9.0 | 18.0 | 0.00 | 0.00 | 0.00 | 67 | 1009.7 |
| 20260504215321 | 79 | 236 | 7.0 | 13.0 | 0.00 | 0.00 | 0.00 | 67 | 1009.7 |
| 20260504214826 | 79 | 161 | 8.0 | 15.0 | 0.00 | 0.00 | 0.00 | 67 | 1009.7 |
| 20260504214328 | 80 | 142 | 6.0 | 15.0 | 0.00 | 0.00 | 0.00 | 67 | 1009.9 |
| 20260504213829 | 80 | 190 | 8.0 | 15.0 | 0.00 | 0.00 | 0.00 | 67 | 1010.1 |
| 20260504213336 | 79 | 153 | 3.0 | 11.0 | 0.00 | 0.00 | 0.00 | 67 | 1010.1 |
| 20260504212848 | 79 | 150 | 6.0 | 14.0 | 0.00 | 0.00 | 0.00 | 67 | 1010.2 |
| 20260504212329 | 79 | 175 | 6.0 | 12.0 | 0.00 | 0.00 | 0.00 | 67 | 1010.2 |
| 20260504211833 | 80 | 185 | 7.0 | 14.0 | 0.00 | 0.00 | 0.00 | 67 | 1010.3 |
| 20260504211335 | 80 | 207 | 7.0 | 19.0 | 0.00 | 0.00 | 0.00 | 67 | 1010.4 |
| 20260504210819 | 80 | 181 | 7.0 | 19.0 | 0.00 | 0.00 | 0.00 | 67 | 1010.5 |
| 20260504210330 | 80 | 205 | 7.0 | 14.0 | 0.00 | 0.00 | 0.00 | 67 | 1010.7 |
| 20260504205833 | 80 | 155 | 7.0 | 15.0 | 0.00 | 0.00 | 0.00 | 68 | 1010.8 |
| 20260504205337 | 80 | 216 | 8.0 | 18.0 | 0.00 | 0.00 | 0.00 | 68 | 1010.8 |
| 20260504204842 | 79 | 208 | 7.0 | 17.0 | 0.00 | 0.00 | 0.00 | 67 | 1010.8 |
| 20260504204351 | 79 | 184 | 6.0 | 17.0 | 0.00 | 0.00 | 0.00 | 67 | 1011.1 |
| 20260504203839 | 79 | 211 | 8.0 | 20.0 | 0.00 | 0.00 | 0.00 | 68 | 1011.2 |
| 20260504203322 | 79 | 197 | 7.0 | 20.0 | 0.00 | 0.00 | 0.00 | 68 | 1011.2 |
| 20260504202855 | 79 | 217 | 9.0 | 18.0 | 0.00 | 0.00 | 0.00 | 68 | 1011.3 |
| 20260504202337 | 79 | 196 | 5.0 | 18.0 | 0.00 | 0.00 | 0.00 | 68 | 1011.2 |
| 20260504201844 | 79 | 150 | 9.0 | 16.0 | 0.00 | 0.00 | 0.00 | 68 | 1011.3 |
| 20260504201325 | 79 | 175 | 5.0 | 16.0 | 0.00 | 0.00 | 0.00 | 68 | 1011.6 |
| 20260504200831 | 79 | 193 | 5.0 | 12.0 | 0.00 | 0.00 | 0.00 | 68 | 1011.7 |
| 20260504200317 | 79 | 134 | 6.0 | 16.0 | 0.00 | 0.00 | 0.00 | 68 | 1011.7 |
| 20260504195824 | 79 | 202 | 8.0 | 16.0 | 0.00 | 0.00 | 0.00 | 69 | 1011.6 |
| 20260504195327 | 79 | 163 | 8.0 | 16.0 | 0.00 | 0.00 | 0.00 | 69 | 1011.9 |
| 20260504194833 | 79 | 209 | 6.0 | 13.0 | 0.00 | 0.00 | 0.00 | 69 | 1012.0 |
| 20260504194318 | 79 | 187 | 7.0 | 13.0 | 0.00 | 0.00 | 0.00 | 69 | 1012.1 |
| 20260504193825 | 79 | 195 | 5.0 | 16.0 | 0.00 | 0.00 | 0.00 | 69 | 1012.2 |
| 20260504193329 | 79 | 149 | 6.0 | 14.0 | 0.00 | 0.00 | 0.00 | 69 | 1012.2 |
| 20260504192834 | 79 | 187 | 6.0 | 16.0 | 0.00 | 0.00 | 0.00 | 69 | 1012.3 |
| 20260504192319 | 79 | 199 | 7.0 | 15.0 | 0.00 | 0.00 | 0.00 | 70 | 1012.4 |
| 20260504191850 | 79 | 153 | 7.0 | 16.0 | 0.00 | 0.00 | 0.00 | 70 | 1012.5 |
| 20260504191337 | 79 | 134 | 8.0 | 16.0 | 0.00 | 0.00 | 0.00 | 70 | 1012.4 |
| 20260504190844 | 79 | 227 | 7.0 | 16.0 | 0.00 | 0.00 | 0.00 | 70 | 1012.3 |
| 20260504190326 | 79 | 161 | 7.0 | 17.0 | 0.00 | 0.00 | 0.00 | 70 | 1012.5 |
| 20260504185840 | 79 | 193 | 7.0 | 17.0 | 0.00 | 0.00 | 0.00 | 70 | 1012.7 |
| 20260504185343 | 79 | 138 | 8.0 | 15.0 | 0.00 | 0.00 | 0.00 | 71 | 1012.6 |
| 20260504184846 | 79 | 222 | 8.0 | 14.0 | 0.00 | 0.00 | 0.00 | 71 | 1012.7 |
| 20260504184327 | 79 | 173 | 8.0 | 20.0 | 0.00 | 0.00 | 0.00 | 71 | 1012.8 |
| 20260504183902 | 79 | 192 | 8.0 | 17.0 | 0.00 | 0.00 | 0.00 | 71 | 1013.0 |
| 20260504183346 | 78 | 206 | 5.0 | 17.0 | 0.00 | 0.00 | 0.00 | 72 | 1013.2 |
| 20260504182849 | 78 | 176 | 3.0 | 18.0 | 0.00 | 0.00 | 0.00 | 72 | 1013.2 |
| 20260504182355 | 78 | 149 | 8.0 | 18.0 | 0.00 | 0.00 | 0.00 | 72 | 1013.2 |
| 20260504181842 | 78 | 198 | 7.0 | 17.0 | 0.00 | 0.00 | 0.00 | 72 | 1013.3 |
| 20260504181325 | 78 | 171 | 9.0 | 19.0 | 0.00 | 0.00 | 0.00 | 72 | 1013.1 |
| 20260504180830 | 78 | 200 | 9.0 | 19.0 | 0.00 | 0.00 | 0.00 | 73 | 1013.3 |
| 20260504180336 | 77 | 181 | 7.0 | 20.0 | 0.00 | 0.00 | 0.00 | 73 | 1013.3 |
| 20260504175824 | 77 | 237 | 10.0 | 20.0 | 0.00 | 0.00 | 0.00 | 73 | 1013.4 |
| 20260504175325 | 77 | 153 | 7.0 | 20.0 | 0.00 | 0.00 | 0.00 | 73 | 1013.5 |
| 20260504174828 | 77 | 186 | 10.0 | 15.0 | 0.00 | 0.00 | 0.00 | 73 | 1013.7 |
| 20260504174333 | 76 | 213 | 6.0 | 13.0 | 0.00 | 0.00 | 0.00 | 74 | 1013.7 |
| 20260504173839 | 76 | 198 | 8.0 | 22.0 | 0.00 | 0.00 | 0.00 | 74 | 1013.7 |
| 20260504173329 | 76 | 226 | 6.0 | 19.0 | 0.00 | 0.00 | 0.00 | 74 | 1013.8 |
| 20260504172832 | 76 | 140 | 8.0 | 16.0 | 0.00 | 0.00 | 0.00 | 74 | 1013.8 |
| 20260504172335 | 76 | 157 | 5.0 | 16.0 | 0.00 | 0.00 | 0.00 | 74 | 1013.9 |
| 20260504171849 | 76 | 190 | 6.0 | 19.0 | 0.00 | 0.00 | 0.00 | 74 | 1014.0 |
| 20260504171329 | 76 | 208 | 10.0 | 19.0 | 0.00 | 0.00 | 0.00 | 75 | 1014.2 |
| 20260504170849 | 76 | 190 | 7.0 | 16.0 | 0.00 | 0.00 | 0.00 | 75 | 1014.2 |
| 20260504170335 | 75 | 148 | 6.0 | 22.0 | 0.00 | 0.00 | 0.00 | 75 | 1014.2 |
| 20260504160325 | 73 | 178 | 9.0 | 18.0 | 0.00 | 0.00 | 0.00 | 76 | 1014.8 |
| 20260504150821 | 71 | 172 | 7.0 | 14.0 | 0.00 | 0.00 | 0.00 | 77 | 1015.0 |
| 20260504150320 | 71 | 196 | 6.0 | 14.0 | 0.00 | 0.00 | 0.00 | 77 | 1015.1 |
| 20260504141328 | 67 | 213 | 6.0 | 13.0 | 0.00 | 0.00 | 0.00 | 76 | 1015.2 |
| 20260504140831 | 66 | 144 | 5.0 | 12.0 | 0.00 | 0.00 | 0.00 | 76 | 1015.3 |
| 20260504140336 | 66 | 242 | 6.0 | 12.0 | 0.00 | 0.00 | 0.00 | 76 | 1015.2 |
| 20260504130318 | 59 | 173 | 5.0 | 8.0 | 0.00 | 0.00 | 0.00 | 74 | 1015.2 |
| 20260504110337 | 56 | 143 | 1.0 | 2.0 | 0.00 | 0.00 | 0.00 | 70 | 1014.8 |
| 20260504033321 | 63 | 188 | 3.0 | 5.0 | 0.00 | 0.00 | 0.00 | 60 | 1017.4 |
| 20260504032853 | 63 | 191 | 2.0 | 5.0 | 0.00 | 0.00 | 0.00 | 60 | 1017.2 |
| 20260504032336 | 63 | 182 | 2.0 | 4.0 | 0.00 | 0.00 | 0.00 | 60 | 1017.3 |
| 20260504031842 | 63 | 188 | 2.0 | 5.0 | 0.00 | 0.00 | 0.00 | 59 | 1017.3 |
| 20260504031327 | 63 | 192 | 3.0 | 5.0 | 0.00 | 0.00 | 0.00 | 59 | 1017.3 |
| 20260504030832 | 63 | 189 | 3.0 | 4.0 | 0.00 | 0.00 | 0.00 | 59 | 1017.3 |
| 20260504030338 | 64 | 185 | 3.0 | 5.0 | 0.00 | 0.00 | 0.00 | 59 | 1017.3 |
| 20260504025823 | 64 | 187 | 2.0 | 5.0 | 0.00 | 0.00 | 0.00 | 59 | 1017.3 |
| 20260504025328 | 64 | 189 | 3.0 | 5.0 | 0.00 | 0.00 | 0.00 | 59 | 1017.3 |
| 20260504024851 | 64 | 182 | 2.0 | 5.0 | 0.00 | 0.00 | 0.00 | 58 | 1017.4 |
| 20260504024335 | 64 | 182 | 2.0 | 5.0 | 0.00 | 0.00 | 0.00 | 58 | 1017.3 |
| 20260504023839 | 65 | 174 | 3.0 | 5.0 | 0.00 | 0.00 | 0.00 | 58 | 1017.2 |
| 20260504023349 | 65 | 169 | 3.0 | 6.0 | 0.00 | 0.00 | 0.00 | 58 | 1017.2 |
| 20260504022834 | 65 | 177 | 2.0 | 5.0 | 0.00 | 0.00 | 0.00 | 58 | 1017.1 |
| 20260504022336 | 65 | 172 | 3.0 | 5.0 | 0.00 | 0.00 | 0.00 | 58 | 1017.0 |
| 20260504021823 | 65 | 171 | 3.0 | 5.0 | 0.00 | 0.00 | 0.00 | 58 | 1017.0 |
| 20260504021327 | 66 | 182 | 2.0 | 5.0 | 0.00 | 0.00 | 0.00 | 58 | 1017.0 |
| 20260504020831 | 66 | 192 | 3.0 | 6.0 | 0.00 | 0.00 | 0.00 | 57 | 1017.0 |
| 20260504020339 | 66 | 161 | 3.0 | 6.0 | 0.00 | 0.00 | 0.00 | 57 | 1017.0 |
| 20260504015819 | 67 | 171 | 3.0 | 5.0 | 0.00 | 0.00 | 0.00 | 57 | 1016.9 |
| 20260504015331 | 67 | 170 | 2.0 | 5.0 | 0.00 | 0.00 | 0.00 | 57 | 1016.9 |
| 20260504014840 | 68 | 173 | 2.0 | 4.0 | 0.00 | 0.00 | 0.00 | 57 | 1016.9 |
| 20260504014322 | 68 | 160 | 2.0 | 5.0 | 0.00 | 0.00 | 0.00 | 57 | 1016.9 |
| 20260504013824 | 68 | 174 | 2.0 | 4.0 | 0.00 | 0.00 | 0.00 | 57 | 1016.9 |
| 20260504013328 | 69 | 149 | 2.0 | 5.0 | 0.00 | 0.00 | 0.00 | 57 | 1016.8 |
| 20260504012846 | 69 | 175 | 0.0 | 4.0 | 0.00 | 0.00 | 0.00 | 57 | 1016.8 |
| 20260504012347 | 70 | 170 | 2.0 | 6.0 | 0.00 | 0.00 | 0.00 | 57 | 1016.8 |
| 20260504011827 | 70 | 159 | 3.0 | 6.0 | 0.00 | 0.00 | 0.00 | 57 | 1016.7 |
| 20260504011334 | 71 | 155 | 3.0 | 7.0 | 0.00 | 0.00 | 0.00 | 57 | 1016.7 |
| 20260504010843 | 71 | 172 | 3.0 | 7.0 | 0.00 | 0.00 | 0.00 | 57 | 1016.7 |
| 20260504010348 | 72 | 182 | 2.0 | 5.0 | 0.00 | 0.00 | 0.00 | 57 | 1016.9 |
| 20260504005840 | 72 | 183 | 3.0 | 4.0 | 0.00 | 0.00 | 0.00 | 58 | 1016.9 |
| 20260504005324 | 73 | 188 | 2.0 | 5.0 | 0.00 | 0.00 | 0.00 | 58 | 1016.8 |
| 20260504004824 | 73 | 188 | 1.0 | 5.0 | 0.00 | 0.00 | 0.00 | 58 | 1016.6 |
| 20260504004352 | 73 | 174 | 3.0 | 5.0 | 0.00 | 0.00 | 0.00 | 58 | 1016.7 |
| 20260504003858 | 74 | 173 | 2.0 | 6.0 | 0.00 | 0.00 | 0.00 | 58 | 1016.8 |
| 20260504003323 | 74 | 171 | 3.0 | 6.0 | 0.00 | 0.00 | 0.00 | 58 | 1016.9 |
| 20260504002832 | 75 | 186 | 2.0 | 4.0 | 0.00 | 0.00 | 0.00 | 59 | 1016.8 |
| 20260504002318 | 75 | 186 | 2.0 | 4.0 | 0.00 | 0.00 | 0.00 | 59 | 1016.9 |
| 20260504001822 | 75 | 184 | 3.0 | 7.0 | 0.00 | 0.00 | 0.00 | 59 | 1016.9 |
| 20260504001325 | 75 | 150 | 3.0 | 9.0 | 0.00 | 0.00 | 0.00 | 59 | 1017.0 |
| 20260504000837 | 76 | 183 | 3.0 | 9.0 | 0.00 | 0.00 | 0.00 | 60 | 1017.0 |
| 20260504000342 | 76 | 171 | 3.0 | 8.0 | 0.00 | 0.00 | 0.00 | 60 | 1017.0 |
| 20260503235820 | 76 | 197 | 4.0 | 7.0 | 0.00 | 0.00 | 0.00 | 60 | 1017.1 |
| 20260503235330 | 76 | 185 | 2.0 | 8.0 | 0.00 | 0.00 | 0.00 | 60 | 1017.2 |
| 20260503234836 | 77 | 219 | 5.0 | 8.0 | 0.00 | 0.00 | 0.00 | 60 | 1017.2 |
| 20260503234320 | 77 | 201 | 3.0 | 9.0 | 0.00 | 0.00 | 0.00 | 61 | 1017.3 |
| 20260503233828 | 77 | 204 | 3.0 | 12.0 | 0.00 | 0.00 | 0.00 | 61 | 1017.3 |
| 20260503232823 | 77 | 229 | 6.0 | 11.0 | 0.00 | 0.00 | 0.00 | 62 | 1017.3 |
| 20260503232327 | 77 | 166 | 4.0 | 9.0 | 0.00 | 0.00 | 0.00 | 62 | 1017.3 |
| 20260503231826 | 77 | 188 | 4.0 | 13.0 | 0.00 | 0.00 | 0.00 | 62 | 1017.3 |
| 20260503231333 | 77 | 136 | 6.0 | 13.0 | 0.00 | 0.00 | 0.00 | 62 | 1017.3 |
| 20260503230819 | 77 | 172 | 4.0 | 10.0 | 0.00 | 0.00 | 0.00 | 62 | 1017.2 |
| 20260503230322 | 77 | 173 | 4.0 | 10.0 | 0.00 | 0.00 | 0.00 | 63 | 1017.3 |
| 20260503225856 | 77 | 142 | 3.0 | 10.0 | 0.00 | 0.00 | 0.00 | 63 | 1017.3 |
| 20260503225322 | 77 | 171 | 5.0 | 11.0 | 0.00 | 0.00 | 0.00 | 63 | 1017.4 |
| 20260503224825 | 77 | 137 | 4.0 | 11.0 | 0.00 | 0.00 | 0.00 | 63 | 1017.4 |